Погода в Серго-Ивановском

Россия / Смоленская область     55°29′21″N   34°45′29″E
темп.,
°C
ветер,
м/с
пор.,
м/с
влажн.,
%
обл.,
%
осадки,
мм/ч
давл.,
гПа
погр.,
м
18 мая, вт
вт1800:00+17вюв614862 0.0 1006368
03:00+16юв6139074 0.0 1005322
06:00+17юв6138817 0.0 1005363
09:00+21юв6107542 0.0 1005517
12:00+25юв69596 0.0 10051269
15:00+26юв7145117 0.0 10042278
18:00+23вюв71260100 0.0 1004550
21:00+19вюв6146899 0.1 1003429
19 мая, ср
ср1900:00+16юв512925 0.6 1004335
03:00+14вюв389483 0.6 1003177
06:00+14юв5119486 0.0 1004432
09:00+17ююв7108064 0.0 1005857
12:00+20ююв8106792 0.4 10061450
15:00+19юв696997 0.7 10061406
18:00+20ю486926 0.2 10051155
21:00+15юв3487100 1.0 100654
20 мая, чт
чт2000:00+14вюв2292100 0.0 100432
03:00+13в3394100 0.4 100350
06:00+14вюв4119692 0.0 1002370
09:00+16юв7118282 0.3 1002958
12:00+17юв9127039 0.8 10011418
15:00+13ююв81387100 2.1 1001933
18:00+11ююв91494100 1.2 1000886
21:00+10ююз81294100 1.2 1003803
21 мая, пт
пт2100:00+9юз71194100 0.1 1004776
03:00+9з61093100 0.4 1006785
06:00+9зсз61290100 0.1 1009803
09:00+12зсз7978100 0.2 1011923
12:00+15зсз67585 0.0 10131497
15:00+17зсз5647100 0.0 10131665
18:00+16зюз3557100 0.0 10141383
21:00+12зюз367097 0.0 1015101
22 мая, сб
сб2200:00+9зсз33825 0.0 101630
03:00+8зсз227888 0.0 101715
06:00+8ссз11800 0.0 101829
09:00+14с11610 0.0 1017386
12:00+17зюз12483 0.0 10161390
15:00+18ююз12444 0.0 10161580
18:00+19юв13481 0.0 10161275
21:00+13юв4468100 0.0 101648